Location: Stuttgart
(48.8069°N, 9.1544°E)
Time: 04:33:57
(UTC+02:00)

ISS - Pass Details

Date: 16 May 2021
Orbit: 417 x 422 km, 51.6° (Epoch: 15 June)

Event Time Altitude Azimuth Distance (km) Brightness Sun altitude
Rises 04:28:01 0° 287° (WNW) 2,375 -0.2 -10.2°
Reaches altitude 10° 04:30:25 10° 272° (W) 1,508 -1.3 -9.9°
Maximum altitude 04:33:06 22° 219° (SW) 974 -2.5 -9.6°
Drops below altitude 10° 04:35:47 10° 166° (SSE) 1,502 -1.2 -9.3°
Sets 04:38:10 0° 151° (SSE) 2,363 -0.1 -9.0°
